Flight Track Log - Related Links

Times and Time Zones

All times are in EDT time to prevent confusion due to time zone crossing. See the AWE997 flight status page for this flight to view local times or setup timezone preferences in your user account.

Time Position Orientation Groundspeed Altitude Reporting Facility
EDT Latitude Longitude Course Direction KTS MPH feet Rate Location/Type
Sat 10:56:36 AM 42.0167 -87.9333 85° East 170 196 2,600  Level Chicago TRACON
Sat 10:57:36 AM 42.0333 -87.8500 75° East 258 297 4,200 2,268 Climbing Chicago TRACON
Sat 10:58:00 AM 41.9515 -87.3825 97° East  Level FlightAware Approximate
Sat 10:59:00 AM 41.9389 -87.2105 95° East  Level FlightAware Approximate
Sat 11:00:00 AM 41.9333 -87.0380 90° East  Level FlightAware Approximate
Sat 11:00:05 AM 42.0681 -87.6136 79° East 289 333 10,500  Level Chicago Center
Sat 11:01:00 AM 41.9334 -86.8652 85° East  Level FlightAware Approximate
Sat 11:01:06 AM 42.0733 -87.4928 87° East 325 374 12,900  Level Chicago Center
Sat 11:02:08 AM 42.0350 -87.3672 112° Southeast 365 420 14,100 1,597 Climbing Chicago Center
Sat 11:03:10 AM 41.9850 -87.1953 111° Southeast 407 468 16,200 1,756 Climbing Chicago Center
Sat 11:04:11 AM 41.9431 -87.0414 110° East 432 497 17,700 1,415 Climbing Chicago Center
Sat 11:05:13 AM 41.9478 -86.8722 88° East 450 518 19,100 1,452 Climbing Chicago Center
Sat 11:06:15 AM 41.9503 -86.6956 89° East 470 541 20,700 1,512 Climbing Chicago Center
Sat 11:07:16 AM 41.9519 -86.5281 89° East 483 556 22,200 1,561 Climbing Chicago Center
Sat 11:08:18 AM 41.9553 -86.3061 89° East 495 570 23,900 1,500 Climbing Chicago Center
Sat 11:09:20 AM 41.9469 -86.1153 93° East 510 587 25,300 1,317 Climbing Chicago Center
Sat 11:10:21 AM 41.9283 -85.9239 97° East 517 595 26,600 1,220 Climbing Chicago Center
Sat 11:11:23 AM 41.9106 -85.7306 97° East 520 598 27,800 1,161 Climbing Chicago Center
Sat 11:12:25 AM 41.8917 -85.5331 97° East 527 606 29,000 1,302 Climbing Chicago Center
Sat 11:13:09 AM 41.8786 -85.3722 96° East 528 608 30,100 1,355 Climbing Cleveland Center
Sat 11:13:27 AM 41.8717 -85.3356 104° East 528 608 30,400 1,291 Climbing Chicago Center
Sat 11:14:28 AM 41.8525 -85.1397 97° East 524 603 31,800 1,294 Climbing Chicago Center
Sat 11:15:09 AM 41.8375 -84.9928 98° East 531 611 32,600 713 Climbing Cleveland Center
Sat 11:16:09 AM 41.8178 -84.7992 98° East 521 600 33,000 200 Climbing Cleveland Center
Sat 11:17:09 AM 41.8011 -84.6225 97° East 526 605 33,000  Level Cleveland Center
Sat 11:18:09 AM 41.7808 -84.4233 98° East 531 611 33,000  Level Cleveland Center
Sat 11:19:09 AM 41.7750 -84.2197 92° East 541 623 33,000 200 Level Cleveland Center
Sat 11:20:09 AM 41.7731 -84.0164 91° East 541 623 33,400 700 Climbing Cleveland Center
Sat 11:21:09 AM 41.7347 -83.8250 105° East 536 617 34,400 800 Climbing Cleveland Center
Sat 11:22:09 AM 41.6878 -83.6419 109° East 520 598 35,000 300 Climbing Cleveland Center
Sat 11:23:09 AM 41.6403 -83.4561 109° East 525 604 35,000  Level Cleveland Center
Sat 11:24:09 AM 41.5928 -83.2764 109° East 525 604 35,000  Level Cleveland Center
Sat 11:25:09 AM 41.5408 -83.0772 109° East 520 598 35,000  Level Cleveland Center
Sat 11:26:09 AM 41.4925 -82.8950 109° East 520 598 35,000  Level Cleveland Center
Sat 11:27:09 AM 41.4439 -82.7189 110° East 509 586 35,000  Level Cleveland Center
Sat 11:28:09 AM 41.4008 -82.5569 109° East 514 592 35,000  Level Cleveland Center
Sat 11:29:09 AM 41.3539 -82.3811 110° East 509 586 35,000  Level Cleveland Center
Sat 11:30:09 AM 41.3064 -82.2086 110° East 504 580 35,000  Level Cleveland Center
Sat 11:31:09 AM 41.2569 -82.0111 108° East 504 580 35,000  Level Cleveland Center
Sat 11:32:09 AM 41.2069 -81.8333 110° East 504 580 35,000  Level Cleveland Center
Sat 11:33:09 AM 41.1564 -81.6642 112° Southeast 504 580 35,000  Level Cleveland Center
Sat 11:34:09 AM 41.1100 -81.5064 111° Southeast 504 580 35,000  Level Cleveland Center
Sat 11:35:09 AM 41.0611 -81.3322 110° East 504 580 35,000  Level Cleveland Center
Sat 11:36:09 AM 41.0100 -81.1528 111° Southeast 511 588 35,000  Level Cleveland Center
Sat 11:37:09 AM 40.9567 -80.9569 110° East 511 588 35,000  Level Cleveland Center
Sat 11:38:09 AM 40.9050 -80.7808 111° Southeast 511 588 35,000  Level Cleveland Center
Sat 11:39:09 AM 40.8572 -80.6217 112° Southeast 511 588 35,000  Level Cleveland Center
Sat 11:40:09 AM 40.8050 -80.4458 111° Southeast 517 595 35,000  Level Cleveland Center
Sat 11:41:09 AM 40.7525 -80.2706 112° Southeast 517 595 35,000  Level Cleveland Center
Sat 11:42:09 AM 40.7000 -80.1011 112° Southeast 517 595 35,000  Level Cleveland Center
Sat 11:43:09 AM 40.6467 -79.9100 110° East 517 595 35,000  Level Cleveland Center
Sat 11:44:09 AM 40.6122 -79.7297 104° East 505 581 35,000  Level Cleveland Center
Sat 11:45:09 AM 40.5817 -79.5469 102° East 500 575 35,000  Level Cleveland Center
Sat 11:46:09 AM 40.5550 -79.3861 102° East 500 575 35,000  Level Cleveland Center
Sat 11:47:09 AM 40.5192 -79.1819 103° East 510 587 35,000  Level Cleveland Center
Sat 11:48:09 AM 40.4897 -78.9969 102° East 510 587 35,000  Level Cleveland Center
Sat 11:49:09 AM 40.4581 -78.8175 103° East 510 587 35,000 50 Level Cleveland Center
Sat 11:50:09 AM 40.4278 -78.6356 102° East 505 581 35,100 -250 Climbing Cleveland Center
Sat 11:51:09 AM 40.3975 -78.4567 102° East 505 581 34,500 -1,818 Descending Cleveland Center
Sat 11:51:48 AM 40.3792 -78.3436 102° East 505 581 32,100 -3,367 Descending New York Center
Sat 11:52:47 AM 40.3450 -78.1600 104° East 516 594 29,000 -3,254 Descending New York Center
Sat 11:53:46 AM 40.3164 -77.9825 102° East 516 594 25,700 -2,000 Descending New York Center
Sat 11:54:47 AM 40.3086 -77.7992 93° East 511 588 25,000 -545 Descending New York Center
Sat 11:55:47 AM 40.3092 -77.6142 90° East 506 582 24,600 -893 Descending New York Center
Sat 11:56:48 AM 40.3081 -77.4506 90° East 506 582 23,200 -1,361 Descending New York Center
Sat 11:57:46 AM 40.3056 -77.2708 91° East 501 577 21,900 -1,373 Descending New York Center
Sat 11:58:46 AM 40.2989 -77.0878 93° East 501 577 20,500 -1,426 Descending New York Center
Sat 11:59:48 AM 40.2697 -76.9272 103° East 478 550 19,000 -1,500 Descending New York Center
Sat 12:00:46 PM 40.2289 -76.7494 107° East 462 532 17,500 -1,513 Descending New York Center
Sat 12:01:47 PM 40.1928 -76.5942 107° East 447 514 16,000 -1,388 Descending New York Center
Sat 12:02:47 PM 40.1581 -76.4500 107° East 436 502 14,700 -1,409 Descending New York Center
Sat 12:03:42 PM 40.1289 -76.3311 108° East 351 404 13,300 -1,600 Descending FAA TRACON SMA TRACON (SMA)
Sat 12:04:02 PM 40.1225 -76.2969 104° East 346 398 12,700 -2,250 Descending FAA TRACON SMA TRACON (SMA)
Sat 12:04:22 PM 40.1183 -76.2539 97° East 380 437 11,800 -2,250 Descending FAA TRACON SMA TRACON (SMA)
Sat 12:04:42 PM 40.1144 -76.2053 96° East 353 406 11,200 -1,200 Descending FAA TRACON SMA TRACON (SMA)
Sat 12:05:02 PM 40.1131 -76.1761 94° East 350 403 11,000 -1,350 Descending FAA TRACON SMA TRACON (SMA)
Sat 12:05:22 PM 40.1081 -76.1197 97° East 342 394 10,300 -1,800 Descending FAA TRACON SMA TRACON (SMA)
Sat 12:05:42 PM 40.1053 -76.0828 96° East 338 389 9,800 -1,500 Descending FAA TRACON SMA TRACON (SMA)
Sat 12:06:02 PM 40.1031 -76.0494 95° East 335 386 9,300 -1,500 Descending FAA TRACON SMA TRACON (SMA)
Sat 12:06:22 PM 40.1000 -76.0003 95° East 329 379 8,800 -1,500 Descending FAA TRACON SMA TRACON (SMA)
Sat 12:06:42 PM 40.0975 -75.9644 95° East 325 374 8,300 -1,200 Descending FAA TRACON SMA TRACON (SMA)
Sat 12:07:02 PM 40.0958 -75.9322 94° East 323 372 8,000 -450 Descending FAA TRACON SMA TRACON (SMA)
Sat 12:07:22 PM 40.0917 -75.8856 97° East 319 367 8,000  Level FAA TRACON SMA TRACON (SMA)
Sat 12:07:42 PM 40.0892 -75.8489 95° East 320 368 8,000  Level FAA TRACON SMA TRACON (SMA)
Sat 12:08:02 PM 40.0869 -75.8181 95° East 317 365 8,000  Level FAA TRACON SMA TRACON (SMA)
Sat 12:08:22 PM 40.0844 -75.7786 95° East 318 366 8,000  Level FAA TRACON SMA TRACON (SMA)
Sat 12:08:42 PM 40.0819 -75.7353 94° East 317 365 8,000 -150 Level FAA TRACON SMA TRACON (SMA)
Sat 12:09:02 PM 40.0783 -75.7022 98° East 316 364 7,900  Descending FAA TRACON SMA TRACON (SMA)
Sat 12:09:22 PM 40.0775 -75.6636 92° East 317 365 8,000 150 Climbing FAA TRACON SMA TRACON (SMA)
Sat 12:09:42 PM 40.0758 -75.6192 93° East 318 366 8,000  Level FAA TRACON SMA TRACON (SMA)
Sat 12:10:02 PM 40.0739 -75.5858 94° East 319 367 8,000 -600 Level FAA TRACON SMA TRACON (SMA)
Sat 12:10:22 PM 40.0725 -75.5478 93° East 319 367 7,600 -1,350 Descending FAA TRACON SMA TRACON (SMA)
Sat 12:10:42 PM 40.0700 -75.5053 94° East 314 361 7,100 -1,610 Descending FAA TRACON SMA TRACON (SMA)
Sat 12:11:03 PM 40.0686 -75.4700 93° East 310 357 6,500 -1,650 Descending FAA TRACON SMA TRACON (SMA)
Sat 12:11:22 PM 40.0669 -75.4350 94° East 305 351 6,000 -769 Descending FAA TRACON SMA TRACON (SMA)
Sat 12:11:42 PM 40.0650 -75.3947 94° East 299 344 6,000  Level FAA TRACON SMA TRACON (SMA)
Sat 12:12:02 PM 40.0633 -75.3625 94° East 293 337 6,000 -150 Level FAA TRACON SMA TRACON (SMA)
Sat 12:12:22 PM 40.0617 -75.3303 94° East 293 337 5,900  Descending FAA TRACON SMA TRACON (SMA)
Sat 12:12:43 PM 40.0603 -75.2894 93° East 290 334 6,000 146 Climbing FAA TRACON SMA TRACON (SMA)
Sat 12:13:03 PM 40.0581 -75.2561 95° East 292 336 6,000  Level FAA TRACON SMA TRACON (SMA)
Sat 12:13:22 PM 40.0564 -75.2231 94° East 294 338 6,000  Level FAA TRACON SMA TRACON (SMA)
Sat 12:13:42 PM 40.0494 -75.1839 103° East 301 346 6,000  Level FAA TRACON SMA TRACON (SMA)
Sat 12:14:02 PM 40.0414 -75.1522 108° East 290 334 6,000  Level FAA TRACON SMA TRACON (SMA)
Sat 12:14:22 PM 40.0339 -75.1239 109° East 265 305 6,000  Level FAA TRACON SMA TRACON (SMA)
Sat 12:14:42 PM 40.0256 -75.0917 109° East 242 278 6,000 -146 Level FAA TRACON SMA TRACON (SMA)
Sat 12:15:03 PM 40.0194 -75.0675 108° East 231 266 5,900 -300 Descending FAA TRACON SMA TRACON (SMA)
Sat 12:15:22 PM 40.0136 -75.0436 108° East 216 249 5,800 -769 Descending FAA TRACON SMA TRACON (SMA)
Sat 12:15:42 PM 40.0081 -75.0208 108° East 211 243 5,400 -1,171 Descending FAA TRACON SMA TRACON (SMA)
Sat 12:16:03 PM 40.0008 -74.9931 109° East 212 244 5,000 -600 Descending FAA TRACON SMA TRACON (SMA)
Sat 12:16:22 PM 39.9947 -74.9706 110° East 214 246 5,000  Level FAA TRACON SMA TRACON (SMA)
Sat 12:16:42 PM 39.9886 -74.9475 109° East 214 246 5,000  Level FAA TRACON SMA TRACON (SMA)
Sat 12:17:03 PM 39.9808 -74.9208 111° Southeast 216 249 5,000 -450 Level FAA TRACON SMA TRACON (SMA)
Sat 12:17:22 PM 39.9669 -74.9036 136° Southeast 208 239 4,700 -1,231 Descending FAA TRACON SMA TRACON (SMA)
Sat 12:17:42 PM 39.9511 -74.9036 180° South 182 209 4,200 -1,024 Descending FAA TRACON SMA TRACON (SMA)
Sat 12:18:03 PM 39.9356 -74.9181 215° Southwest 179 206 4,000 -300 Descending FAA TRACON SMA TRACON (SMA)
Sat 12:18:22 PM 39.9264 -74.9333 232° Southwest 171 197 4,000  Level FAA TRACON SMA TRACON (SMA)
Sat 12:18:42 PM 39.9264 -74.9506 270° West 153 176 4,000  Level FAA TRACON SMA TRACON (SMA)
Sat 12:19:02 PM 39.9247 -74.9725 264° West 155 178 4,000 -300 Level FAA TRACON SMA TRACON (SMA)
Sat 12:19:22 PM 39.9217 -74.9894 257° West 158 182 3,800 -600 Descending FAA TRACON SMA TRACON (SMA)
Sat 12:19:42 PM 39.9181 -75.0067 255° West 159 183 3,600 -600 Descending FAA TRACON SMA TRACON (SMA)

Login

Don't have an account? Register now (free) for customized features, flight alerts, and more!